Brookings, OR

3:21 AM PST on December 15, 2017 (GMT -0800)
Brookings State

Weather History for KBOK - July, 2013

Change the Weather History Date:

Saturday, July 27, 2013

  Actual Average Record
Temperature  
Mean Temperature 65 °F -  
Max Temperature 79 °F 65 °F 82 °F (2011)
Min Temperature 51 °F 51 °F 45 °F (1931)
Growing Degree Days 15 (Base 50)    
Moisture  
Dew Point 54 °F    
Average Humidity 88    
Maximum Humidity 100    
Minimum Humidity 50    
Precipitation  
Precipitation 0.00 in - - ()
Sea Level Pressure  
Sea Level Pressure 30.00 in    
Wind  
Wind Speed 1 mph (SSE)    
Max Wind Speed 8 mph    
Max Gust Speed -    
Visibility 5 miles    
Events Fog    
Averages and records for this station are not official NWS values.
T = Trace of Precipitation, MM = Missing Value Source: NWS Daily Summary

Daily Weather History Graph

Daily Weather History Graph

Search for Another Location

Airport or City:

Trip Planner

Search our weather history database for the weather conditions in past years. The results will help you decide how hot, cold, wet, or windy it might be!

Date:

Astronomy

Jul. 27, 2013 Rise Set
Actual Time 6:05 AM PDT 8:40 PM PDT
Civil Twilight 5:33 AM PDT 9:12 PM PDT
Nautical Twilight 4:53 AM PDT 9:52 PM PDT
Astronomical Twilight 4:08 AM PDT 10:37 PM PDT
Moon 11:23 PM PDT (7/27) 11:59 AM PDT (7/27)
Length of Visible Light 15h 39m
Length of Day
14h 34m
Waning Gibbous, 70% of the Moon is Illuminated
Jul 27
Waning Gibbous
Jul 29
Last Quarter
Aug 6
New
Aug 14
First Quarter
Aug 20
Full

Hourly Weather History & Observations

Time (PDT) Temp. Dew Point Humidity Pressure Visibility Wind Dir Wind Speed Gust Speed Precip Events Conditions
12:56 AM 54.9 °F 52.9 °F 93% 30.06 in 6.0 mi Calm Calm - N/A   Clear
1:03 AM 55.4 °F 53.6 °F 94% 30.06 in 5.0 mi Calm Calm - N/A   Scattered Clouds
1:12 AM 55.4 °F 53.6 °F 94% 30.06 in 4.0 mi ESE 3.5 mph - N/A   Mostly Cloudy
1:31 AM 55.4 °F 53.6 °F 94% 30.05 in 1.8 mi SE 3.5 mph - N/A   Overcast
1:37 AM 55.4 °F 53.6 °F 94% 30.05 in 1.0 mi ESE 3.5 mph - N/A   Overcast
1:56 AM 54.0 °F 54.0 °F 100% 30.04 in 1.0 mi Calm Calm - N/A   Overcast
2:20 AM 53.6 °F 53.6 °F 100% 30.04 in 0.8 mi Calm Calm - N/A   Overcast
2:37 AM 53.6 °F 53.6 °F 100% 30.03 in 0.5 mi Calm Calm - N/A Fog Fog
2:41 AM 53.6 °F 53.6 °F 100% 30.03 in 1.0 mi Calm Calm - N/A   Overcast
2:43 AM 53.6 °F 53.6 °F 100% 30.03 in 1.5 mi Calm Calm - N/A   Overcast
2:48 AM 53.6 °F 53.6 °F 100% 30.03 in 1.0 mi Calm Calm - N/A   Overcast
2:56 AM 54.0 °F 52.9 °F 96% 30.04 in 0.8 mi Calm Calm - N/A   Overcast
3:01 AM 53.6 °F 53.6 °F 100% 30.03 in 1.2 mi Calm Calm - N/A   Overcast
3:04 AM 53.6 °F 53.6 °F 100% 30.03 in 2.0 mi Calm Calm - N/A   Overcast
3:12 AM 53.6 °F 53.6 °F 100% 30.03 in 1.2 mi Calm Calm - N/A   Overcast
3:19 AM 53.6 °F 53.6 °F 100% 30.03 in 1.0 mi Calm Calm - N/A   Mostly Cloudy
3:21 AM 53.6 °F 51.8 °F 94% 30.03 in 1.8 mi Calm Calm - N/A   Mostly Cloudy
3:23 AM 53.6 °F 51.8 °F 94% 30.03 in 3.0 mi Calm Calm - N/A   Mostly Cloudy
3:34 AM 53.6 °F 51.8 °F 94% 30.03 in 6.0 mi Calm Calm - N/A   Scattered Clouds
3:56 AM 52.0 °F 50.9 °F 96% 30.02 in 6.0 mi Calm Calm - N/A   Clear
4:16 AM 51.8 °F 51.8 °F 100% 30.02 in 1.8 mi Calm Calm - N/A   Clear
4:20 AM 51.8 °F 51.8 °F 100% 30.02 in 0.8 mi Calm Calm - N/A   Mist
4:28 AM 51.8 °F 51.8 °F 100% 30.02 in 1.2 mi Calm Calm - N/A   Mostly Cloudy
4:30 AM 51.8 °F 51.8 °F 100% 30.02 in 3.0 mi Calm Calm - N/A   Partly Cloudy
4:43 AM 51.8 °F 51.8 °F 100% 30.01 in 8.0 mi Calm Calm - N/A   Mostly Cloudy
4:56 AM 52.0 °F 50.9 °F 96% 30.01 in 2.5 mi Calm Calm - N/A   Mostly Cloudy
5:02 AM 51.8 °F 51.8 °F 100% 30.01 in 10.0 mi Calm Calm - N/A   Scattered Clouds
5:56 AM 52.0 °F 50.9 °F 96% 30.01 in 8.0 mi Calm Calm - N/A   Clear
6:09 AM 51.8 °F 51.8 °F 100% 30.01 in 3.0 mi Calm Calm - N/A   Scattered Clouds
6:56 AM 52.0 °F 50.9 °F 96% 30.02 in 8.0 mi Calm Calm - N/A   Clear
7:56 AM 55.9 °F 54.0 °F 93% 30.01 in 9.0 mi Calm Calm - N/A   Clear
8:56 AM 61.0 °F 56.8 °F 86% 30.01 in 10.0 mi Calm Calm - N/A   Clear
9:56 AM 65.8 °F 57.9 °F 76% 30.00 in 9.0 mi WSW 4.6 mph - N/A   Clear
10:56 AM 68.9 °F 59.0 °F 71% 29.99 in 9.0 mi Calm Calm - N/A   Clear
11:56 AM 70.9 °F 59.0 °F 66% 29.98 in 10.0 mi WSW 4.6 mph - N/A   Clear
12:56 PM 75.9 °F 59.9 °F 57% 29.96 in 10.0 mi Variable 3.5 mph - N/A   Clear
1:56 PM 77.9 °F 59.9 °F 54% 29.94 in 9.0 mi Variable 3.5 mph - N/A   Clear
2:56 PM 79.9 °F 59.9 °F 50% 29.92 in 8.0 mi South 6.9 mph - N/A   Clear
3:56 PM 79.0 °F 59.9 °F 52% 29.91 in 8.0 mi SSE 8.1 mph - N/A   Clear
4:56 PM 73.9 °F 57.9 °F 57% 29.89 in 7.0 mi SSE 8.1 mph - N/A   Clear
5:56 PM 70.9 °F 56.8 °F 61% 29.89 in 6.0 mi SE 8.1 mph - N/A   Haze
6:56 PM 66.9 °F 55.9 °F 68% 29.88 in 6.0 mi SSE 8.1 mph - N/A   Haze
7:56 PM 63.9 °F 54.9 °F 72% 29.90 in 5.0 mi South 6.9 mph - N/A   Haze
8:56 PM 59.9 °F 54.0 °F 81% 29.93 in 5.0 mi SSE 5.8 mph - N/A   Haze
9:56 PM 56.8 °F 52.9 °F 87% 29.95 in 6.0 mi Calm Calm - N/A   Clear
10:56 PM 54.9 °F 52.0 °F 90% 29.96 in 6.0 mi Calm Calm - N/A   Clear
11:56 PM 54.0 °F 52.0 °F 93% 29.96 in 6.0 mi Calm Calm - N/A   Clear